Regional Weather Roundup
Issued by NWS

Home | Current Version | Previous Version | Text Only | Print | Product List | Glossary Off
Versions: 1 2 3 4 5 6 7 8 9 10 11 12 13 14 15 16 17 18 19 20 21 22 23 24 25 26 27 28 29 30 31 32 33 34 35 36 37 38 39 40 41 42 43 44 45 46 47 48 49 50

000
ASUS45 KPSR 261410
RWRAZ

ARIZONA REGIONAL HOURLY WEATHER ROUNDUP
NATIONAL WEATHER SERVICE PHOENIX AZ
700 AM MST FRI DEC 26 2014

NOTE: FAIR INDICATES FEW OR NO CLOUDS BELOW 12,000 FEET WITH NO
SIGNIFICANT WEATHER AND/OR OBSTRUCTIONS TO VISIBILITY.

AZZ001>003-036-261500-
NORTHWEST ARIZONA

CITY           SKY/WX    TMP DP  RH WIND       PRES   REMARKS
BULLHEAD CITY  CLEAR     45  18  33 N15       30.02R
KINGMAN        CLEAR     27  15  61 SE3       29.96R
$$

AZZ004>008-015-016-018-261500-
NORTH CENTRAL ARIZONA

CITY           SKY/WX    TMP DP  RH WIND       PRES   REMARKS
GRAND CANYON   CLEAR     14  10  84 CALM      29.81R
PRESCOTT       CLEAR     21  12  68 NW7       29.89R WCI  12
FLAGSTAFF      CLEAR     16  10  77 SW6       29.77R WCI   7
PAYSON         CLEAR     23  12  63 CALM      29.88R
PAGE           CLOUDY    32  12  43 VRB5      29.82R WCI  27
$$

AZZ009>014-017-261500-
NORTHEAST ARIZONA

CITY           SKY/WX    TMP DP  RH WIND       PRES   REMARKS
WINSLOW        CLEAR     19  13  77 W9        29.85R WCI   8
SAINT JOHNS    CLEAR     16  14  92 S5        29.81R WCI   9
WINDOW ROCK    PTCLDY    13   9  84 NW3       29.74R
SHOW LOW       CLEAR     16   9  73 S9        29.84R WCI   4
$$

AZZ023-261500-
GREATER PHOENIX AREA

CITY           SKY/WX    TMP DP  RH WIND       PRES   REMARKS
PHOENIX        CLEAR     42  16  34 CALM      29.95R
BUCKEYE          N/A     30  18  59 NW8       29.98R WCI  23
GLENDALE       CLEAR     37  19  48 CALM      29.97R
LUKE AFB       CLEAR     34  20  55 E2        29.96R
DEER VALLEY    CLEAR     32  19  58 CALM      29.95R
SCOTTSDALE     CLEAR     34  20  56 CALM      29.97R
MESA-FALCON    CLEAR     32  18  55 N5        29.94R WCI  27
MESA-GATEWAY   CLEAR     28  19  69 E5        29.97R WCI  23
CHANDLER       CLEAR     34  21  60 SE5       29.96R WCI  30
$$

AZZ027-028-261500-
SOUTHWEST MARICOPA COUNTY AND PINAL COUNTY

CITY           SKY/WX    TMP DP  RH WIND       PRES   REMARKS
CASA GRANDE    CLEAR     36  14  41 CALM      29.96R
GILA BEND      FAIR      34  19  54 S6        29.99R WCI  29
$$

AZZ503-504-507>509-261500-
SOUTHEAST ARIZONA

CITY           SKY/WX    TMP DP  RH WIND       PRES   REMARKS
TUCSON         CLEAR     39  27  62 CALM      29.96R
DAVIS-MONTHAN  CLEAR     39  24  53 W2        29.94R
RYAN FIELD       N/A     41  32  70 S5        29.96R
NOGALES        CLOUDY    39  34  82 CALM      29.92R
SIERRA VISTA   CLOUDY    35  27  72 NW9       29.91R WCI  28
DOUGLAS        CLOUDY    35  31  85 NE5       29.92R WCI  31
SAFFORD        CLEAR     35  19  52 NW10      29.90R WCI  27
$$

AZZ020-021-025-026-031-261500-
SOUTHWEST ARIZONA

CITY           SKY/WX    TMP DP  RH WIND       PRES   REMARKS
YUMA           CLEAR    N/A N/A N/A CALM      30.01R
$$

CAZ031-033-041-043-047-048-061-261500-
SOUTHERN CALIFORNIA

CITY           SKY/WX    TMP DP  RH WIND       PRES   REMARKS
DOWNTOWN L.A.  CLEAR     45  22  40 E3        30.00R
L.A. AIRPORT   CLEAR     50  16  25 N3        30.00R
SAN DIEGO      CLEAR     48  29  47 CALM      30.00R
BURBANK        CLEAR     44  17  33 N7        30.01R
ONTARIO        CLEAR     44  17  33 N6        30.00R
RIVERSIDE      CLEAR     51  11  20 N13G28    30.01R
PALM SPRINGS   CLEAR     49  13  23 W5        30.06R
EL CENTRO NAS  CLEAR     39  22  50 SW5       30.03R
IMPERIAL       CLEAR     38  23  55 CALM      30.02R
BLYTHE         CLEAR     42  17  36 NW3       30.01R
NEEDLES        CLEAR     42  12  29 W8        30.01R
$$

NVZ020-UTZ003-261500-
SOUTHERN NEVADA-UTAH

CITY           SKY/WX    TMP DP  RH WIND       PRES   REMARKS
LAS VEGAS      PTCLDY    42  10  27 NW17      29.97R
SALT LAKE CITY CLOUDY    24  20  84 N9        29.93R WCI  14
$$

NMZ009-TXZ055-261500-
NEW MEXICO-WEST TEXAS

CITY           SKY/WX    TMP DP  RH WIND       PRES   REMARKS
ALBUQUERQUE    FOG       30  30 100 SW5       29.78R VSB 1/4 WCI  25
EL PASO        LGT RAIN  41  34  76 NW10      29.87R
$$


........................KEY........................
SKY/WX - SKY CONDITION/WEATHER
TMP    - TEMPERATURE IN FAHRENHEIT
DP     - DEW POINT IN FAHRENHEIT
RH     - RELATIVE HUMIDITY IN PERCENT
WIND   - DIRECTION AND SPEED IN MILES PER HOUR (MPH)
VRB    - VARIABLE WIND DIRECTION
PRES   - MEAN SEA LEVEL PRESSURE IN INCHES OF MERCURY
         F - FALLING PRESSURE   R - RISING PRESSURE
         S - STEADY PRESSURE
VSB    - VISIBILITY IN MILES
HX     - HEAT INDEX IN FAHRENHEIT
WCI    - WIND CHILL INDEX IN FAHRENHEIT
TC     - TEMPERATURE IN CELSIUS WHICH IS ALSO KNOWN AS
         TEMPERATURE IN CENTIGRADE
AFB    - AIR FORCE BASE
         LUKE AFB IS LUKE AIR FORCE BASE
         DAVIS-MONTHAN IS DAVIS-MONTHAN AIR FORCE BASE
NAS    - NAVAL AIR STATION
         EL CENTRO NAS IS EL CENTRO NAVAL AIR STATION
N/A    - NOT AVAILABLE


USA.gov is the U.S. government's official web portal to all federal, state and local government web resources and services.